Location: Newark
(34.1333°N, 7.9667°W)
Time: 13:43:33
(UTC+00:00)

S-56A Canister/Altair - Pass Details

Date: 12 December 2021
Orbit: 634 x 2499 km, 38.9° (Epoch: 25 January)

Event Time Altitude Azimuth Distance (km) Brightness Sun altitude
Rises 20:03:03 0° 224° (SW) 6,155 12.8 -32.3°
Reaches altitude 10° 20:07:12 10° 221° (SW) 5,152 12.2 -33.1°
Maximum altitude 20:21:40 58° 147° (SSE) 2,510 9.8 -36.1°
Enters shadow 20:22:37 57° 133° (SE) 2,494 9.7 -36.3°
